CAPE
994 1060 787 786 705 792 740 761 657 683 636 813 891 1045 997 842 1082 1150 1205 1256 1297 1046 1063 836 822 712 575 548 770 742 844 1064 1005 952 775 699 647 637 860 899 701 605
1114 1230 1028 916 862 862 898 924 823 819 872 912 1061 794 884 845 707 742 938 928 890 1023 1026 909 816 678 622 562 564 733 840 859 885 773 743 625 624 698 919 907 769 754
1039 1185 1044 1047 947 870 765 803 940 1072 1194 1046 814 718 657 757 734 698 774 855 899 933 922 894 829 868 695 569 597 735 596 581 722 751 634 553 580 666 829 903 844 979
829 1048 1106 1228 1224 1079 889 860 1009 953 886 771 660 541 518 470 502 551 673 890 711 810 773 889 806 709 680 685 552 495 561 535 616 744 554 403 459 636 855 986 949 966
864 912 1016 1135 1070 1056 956 967 898 808 726 646 538 515 463 389 366 250 312 563 520 711 842 807 758 648 642 624 624 561 670 673 657 695 721 460 398 503 710 853 944 922
828 968 1038 928 942 964 853 817 764 672 633 611 580 415 149 107 46 74 99 459 462 501 628 768 666 562 652 653 580 557 591 650 604 627 542 430 355 431 530 694 885 937
802 864 902 787 909 731 718 684 649 605 594 395 118 70 43 77 38 55 6 59 456 486 496 458 625 611 642 497 602 684 660 631 560 533 620 534 453 491 576 524 666 707
762 810 712 750 755 734 697 657 616 571 430 70 25 9 18 2 0 0 0 1 41 436 469 513 462 583 597 558 637 671 679 624 554 530 578 491 438 623 584 728 974 968
690 678 653 872 851 764 686 590 514 214 53 14 0 0 0 0 0 0 0 0 0 0 13 517 488 392 594 803 779 725 751 681 573 574 645 659 596 660 727 944 1131 1046
880 852 826 850 858 774 665 557 327 63 28 6 3 14 0 0 0 0 0 0 0 0 30 376 388 339 350 524 556 720 695 637 588 589 557 516 568 771 875 1020 1133 1052
918 843 825 800 786 712 610 358 57 26 0 1 0 0 0 0 0 0 0 0 0 2 30 52 74 82 183 414 476 525 720 839 754 631 432 548 715 836 1007 1077 973 1094
726 842 763 751 679 621 497 229 50 8 0 0 0 0 0 0 0 0 0 0 0 0 0 0 0 0 0 0 281 378 291 374 643 498 41 104 498 833 1021 722 722 995
522 633 765 620 624 532 388 73 37 5 0 0 0 0 0 0 0 0 0 0 0 0 0 0 0 0 0 0 0 0 1 1 87 88 0 0 0 458 639 666 743 798
43 269 558 592 554 510 332 127 16 0 0 0 0 0 0 0 0 0 0 0 0 0 0 0 0 0 0 0 0 0 0 0 0 0 0 0 183 422 572 646 677 638
209 110 256 454 507 494 309 102 19 0 0 0 0 0 0 0 0 0 0 0 0 0 0 0 0 0 0 0 0 0 0 0 0 0 0 13 85 197 431 533 527 316
219 300 403 460 359 396 298 117 8 0 0 0 0 0 0 0 0 0 0 0 0 0 0 0 0 0 0 0 0 0 0 0 0 0 0 0 0 0 0 0 0 0
262 274 305 347 333 330 274 152 47 0 0 0 0 0 0 0 0 0 0 0 0 0 0 0 0 0 0 0 0 0 0 0 7 4 0 0 8 0 0 0 0 0
357 266 316 380 362 258 194 19 0 0 0 0 0 0 0 0 0 0 0 0 0 0 0 0 0 0 0 0 0 0 0 0 0 8 0 9 4 0 0 0 0 0
97 344 201 279 317 257 238 188 0 0 0 0 0 0 0 0 0 0 0 0 0 0 0 2 2 0 0 0 0 0 0 0 0 0 0 0 0 0 0 0 0 0
252 230 224 280 323 259 178 124 0 0 0 0 0 0 0 0 0 0 0 0 0 0 5 6 4 0 0 0 0 0 0 0 0 0 0 0 10 26 0 0 0 0
6 127 76 143 77 107 125 55 14 0 0 0 0 0 0 0 0 0 0 0 0 4 5 2 0 0 0 0 0 0 0 1 60 16 9 105 82 60 42 2 0 0
43 27 31 102 95 84 31 35 0 0 0 0 0 0 0 0 0 0 0 0 1 3 4 0 0 0 0 0 0 0 0 0 143 134 89 111 123 96 59 44 33 14
32 116 122 133 141 36 48 18 2 0 0 0 0 0 0 0 0 0 0 0 0 0 1 1 0 0 0 0 0 0 0 0 72 63 80 64 113 156 138 106 81 99
11 11 74 71 132 49 40 21 5 0 0 0 0 0 0 0 0 0 0 0 0 0 1 2 4 2 0 0 0 0 0 0 0 0 8 11 60 121 160 174 164 97
6 8 27 80 91 60 41 20 8 2 20 16 0 0 0 0 0 0 0 0 0 0 5 7 9 4 0 0 0 0 0 0 0 0 0 0 0 0 0 0 0 0
0 0 1 11 28 16 2 3 2 0 0 0 0 0 0 0 0 0 0 0 0 2 12 14 9 5 0 0 0 0 0 0 0 0 0 0 0 0 0 0 0 0
Wind_Speed
18 17 15 12 13 14 14 14 12 11 9 10 11 11 13 13 15 15 16 17 18 20 21 22 23 19 16 13 14 15 12 14 14 13 13 13 12 11 10 10 11 11
17 18 14 12 12 13 14 14 13 12 12 12 13 15 16 17 17 17 18 18 18 19 20 21 22 21 20 17 16 14 13 13 12 11 12 11 10 10 9 8 9 10
16 17 16 13 12 14 16 14 14 15 16 15 17 19 19 19 19 19 18 19 19 18 19 20 21 21 21 18 14 11 12 12 11 10 10 10 9 9 7 7 8 8
14 16 16 14 12 14 15 16 17 19 18 19 19 20 21 20 20 19 18 18 18 17 17 18 19 19 21 18 12 11 12 10 9 9 10 9 8 8 7 8 8 8
14 16 15 13 12 14 16 20 22 21 20 19 20 20 21 21 20 18 19 19 17 16 16 17 18 19 19 16 13 13 11 10 10 9 9 8 6 6 5 6 7 6
11 13 14 15 14 15 17 21 23 23 22 20 19 19 19 19 nan nan nan 19 17 17 17 18 18 18 17 15 13 13 11 10 9 9 9 7 8 6 5 5 5 6
11 12 15 16 16 17 18 20 22 24 22 20 19 nan nan nan nan nan nan nan 17 17 17 17 19 18 17 14 12 13 11 9 10 10 10 7 8 8 6 6 5 7
12 11 14 15 17 18 19 20 23 24 24 nan nan nan nan nan nan nan nan nan nan 16 17 18 18 19 18 16 13 13 13 11 11 11 10 9 9 9 8 7 8 9
12 12 14 15 17 17 19 21 23 24 nan nan nan nan nan nan nan nan nan nan nan nan nan 17 17 17 18 17 16 14 13 11 11 11 10 10 9 9 9 9 11 10
15 15 16 15 16 16 19 20 22 nan nan nan nan nan nan nan nan nan nan nan nan nan nan 18 17 17 18 17 15 14 11 9 9 9 10 11 10 9 9 11 12 13
14 18 18 17 18 20 22 21 nan nan nan nan nan nan nan nan nan nan nan nan nan nan nan nan nan nan 16 15 14 13 11 10 9 8 9 9 10 10 11 13 14 14
9 18 20 20 21 24 25 23 nan nan nan nan nan nan nan nan nan nan nan nan nan nan nan nan nan nan nan nan 16 13 13 14 12 11 nan 10 11 12 14 14 15 16
13 16 21 21 22 23 25 nan nan nan nan nan nan nan nan nan nan nan nan nan nan nan nan nan nan nan nan nan nan nan nan nan nan nan nan nan nan 16 15 15 15 16
nan 15 21 24 22 24 26 29 nan nan nan nan nan nan nan nan nan nan nan nan nan nan nan nan nan nan nan nan nan nan nan nan nan nan nan nan 18 20 19 16 16 17
22 21 19 23 26 26 27 27 nan nan nan nan nan nan nan nan nan nan nan nan nan nan nan nan nan nan nan nan nan nan nan nan nan nan nan nan nan 24 21 20 19 19
23 23 23 21 23 27 27 27 nan nan nan nan nan nan nan nan nan nan nan nan nan nan nan nan nan nan nan nan nan nan nan nan nan nan nan nan nan nan nan nan nan nan
25 24 27 25 26 26 24 29 nan nan nan nan nan nan nan nan nan nan nan nan nan nan nan nan nan nan nan nan nan nan nan nan nan nan nan nan nan nan nan nan nan nan
27 27 29 30 26 28 25 nan nan nan nan nan nan nan nan nan nan nan nan nan nan nan nan nan nan nan nan nan nan nan nan nan nan nan nan nan nan nan nan nan nan nan
nan 26 29 30 29 28 30 31 nan nan nan nan nan nan nan nan nan nan nan nan nan nan nan nan nan nan nan nan nan nan nan nan nan nan nan nan nan nan nan nan nan nan
30 31 30 30 30 30 33 35 nan nan nan nan nan nan nan nan nan nan nan nan nan nan nan nan nan nan nan nan nan nan nan nan nan nan nan nan nan nan nan nan nan nan
nan 35 nan 34 nan 32 35 nan nan nan nan nan nan nan nan nan nan nan nan nan nan nan nan nan nan nan nan nan nan nan nan nan nan nan nan 35 nan nan nan nan nan nan
nan nan nan 38 nan nan nan nan nan nan nan nan nan nan nan nan nan nan nan nan nan nan nan nan nan nan nan nan nan nan nan nan 34 36 nan 38 39 nan nan nan nan nan
nan 35 38 39 39 nan nan nan nan nan nan nan nan nan nan nan nan nan nan nan nan nan nan nan nan nan nan nan nan nan nan nan nan nan nan nan 40 40 39 38 nan nan
nan nan nan nan 42 nan nan nan nan nan nan nan nan nan nan nan nan nan nan nan nan nan nan nan nan nan nan nan nan nan nan nan nan nan nan nan nan 41 40 41 40 nan
nan nan nan nan nan nan nan nan nan nan nan nan nan nan nan nan nan nan nan nan nan nan nan nan nan nan nan nan nan nan nan nan nan nan nan nan nan nan nan nan nan nan
nan nan nan nan nan nan nan nan nan nan nan nan nan nan nan nan nan nan nan nan nan nan nan nan nan nan nan nan nan nan nan nan nan nan nan nan nan nan nan nan nan nan
Wind_Direction
311 310 316 317 311 305 298 294 288 280 270 267 265 270 276 271 269 264 255 250 248 248 246 249 259 267 270 268 274 275 267 267 266 267 266 265 266 272 269 261 250 251
311 310 313 313 307 301 298 297 293 286 280 278 276 277 274 271 265 260 256 254 251 250 253 254 258 265 271 272 268 272 274 273 272 258 266 257 258 262 263 264 260 250
308 309 313 313 309 306 303 297 290 283 279 279 276 273 268 262 261 256 255 256 253 253 252 259 261 265 269 271 276 279 272 272 265 260 267 273 271 271 266 257 250 257
306 310 311 308 300 301 295 286 275 267 266 267 267 264 259 255 254 254 251 254 257 260 262 263 268 269 270 273 274 260 255 266 263 273 271 260 260 253 254 246 242 240
306 309 307 300 294 287 282 276 271 267 264 263 259 257 257 255 254 255 254 265 264 265 269 271 272 275 278 280 274 267 267 267 270 276 274 263 245 246 221 228 234 243
295 300 303 301 289 282 277 276 273 270 268 264 264 260 260 262 nan nan nan 271 272 270 269 271 275 274 275 274 272 274 280 277 276 271 265 266 269 253 238 225 231 242
278 284 298 294 289 287 282 278 275 275 274 269 264 nan nan nan nan nan nan nan 274 274 270 267 274 275 272 265 258 267 272 276 270 265 263 253 259 260 242 250 250 246
260 272 288 291 292 292 286 283 283 282 278 nan nan nan nan nan nan nan nan nan nan 274 269 268 263 267 269 267 264 264 264 261 268 265 264 256 250 257 260 262 258 250
251 268 280 285 290 288 289 288 287 284 nan nan nan nan nan nan nan nan nan nan nan nan nan 265 260 256 259 265 266 267 267 264 267 271 271 268 263 257 264 262 261 256
246 257 266 270 273 275 284 285 284 nan nan nan nan nan nan nan nan nan nan nan nan nan nan 261 257 254 258 265 267 268 266 265 263 267 272 275 279 277 274 268 266 260
255 264 266 266 266 267 274 274 nan nan nan nan nan nan nan nan nan nan nan nan nan nan nan nan nan nan 255 256 258 257 260 262 265 266 268 273 278 271 272 268 268 265
257 277 274 273 274 273 274 269 nan nan nan nan nan nan nan nan nan nan nan nan nan nan nan nan nan nan nan nan 241 250 253 257 270 277 nan 279 269 265 268 267 269 266
224 266 277 277 277 276 270 nan nan nan nan nan nan nan nan nan nan nan nan nan nan nan nan nan nan nan nan nan nan nan nan nan nan nan nan nan nan 274 265 262 267 266
nan 235 269 279 280 276 268 262 nan nan nan nan nan nan nan nan nan nan nan nan nan nan nan nan nan nan nan nan nan nan nan nan nan nan nan nan 271 261 263 262 257 256
276 256 253 270 280 275 270 261 nan nan nan nan nan nan nan nan nan nan nan nan nan nan nan nan nan nan nan nan nan nan nan nan nan nan nan nan nan 264 267 263 258 256
283 282 269 249 256 266 270 260 nan nan nan nan nan nan nan nan nan nan nan nan nan nan nan nan nan nan nan nan nan nan nan nan nan nan nan nan nan nan nan nan nan nan
285 282 277 266 252 245 257 264 nan nan nan nan nan nan nan nan nan nan nan nan nan nan nan nan nan nan nan nan nan nan nan nan nan nan nan nan nan nan nan nan nan nan
280 280 278 278 270 264 250 nan nan nan nan nan nan nan nan nan nan nan nan nan nan nan nan nan nan nan nan nan nan nan nan nan nan nan nan nan nan nan nan nan nan nan
nan 280 271 268 267 258 252 258 nan nan nan nan nan nan nan nan nan nan nan nan nan nan nan nan nan nan nan nan nan nan nan nan nan nan nan nan nan nan nan nan nan nan
279 278 273 268 266 260 252 254 nan nan nan nan nan nan nan nan nan nan nan nan nan nan nan nan nan nan nan nan nan nan nan nan nan nan nan nan nan nan nan nan nan nan
nan 271 nan 263 nan 258 255 nan nan nan nan nan nan nan nan nan nan nan nan nan nan nan nan nan nan nan nan nan nan nan nan nan nan nan nan 254 nan nan nan nan nan nan
nan nan nan 256 nan nan nan nan nan nan nan nan nan nan nan nan nan nan nan nan nan nan nan nan nan nan nan nan nan nan nan nan 253 256 nan 253 250 nan nan nan nan nan
nan 246 251 255 258 nan nan nan nan nan nan nan nan nan nan nan nan nan nan nan nan nan nan nan nan nan nan nan nan nan nan nan nan nan nan nan 249 250 251 250 nan nan
nan nan nan nan 252 nan nan nan nan nan nan nan nan nan nan nan nan nan nan nan nan nan nan nan nan nan nan nan nan nan nan nan nan nan nan nan nan 250 251 252 250 nan
nan nan nan nan nan nan nan nan nan nan nan nan nan nan nan nan nan nan nan nan nan nan nan nan nan nan nan nan nan nan nan nan nan nan nan nan nan nan nan nan nan nan
nan nan nan nan nan nan nan nan nan nan nan nan nan nan nan nan nan nan nan nan nan nan nan nan nan nan nan nan nan nan nan nan nan nan nan nan nan nan nan nan nan nan